Regional Weather Roundup
Issued by NWS

Home | Current Version | Previous Version | Graphics & Text | Print | Product List | Glossary On
Versions: 1 2 3 4 5 6 7 8 9 10 11 12 13 14 15 16 17 18 19 20 21 22 23 24 25 26 27 28 29 30 31 32 33 34 35 36 37 38 39 40 41 42 43 44 45 46 47 48 49 50
657
ASUS44 KMEG 201900
RWRTN
TENNESSEE HOURLY STATE WEATHER ROUNDUP
NATIONAL WEATHER SERVICE MEMPHIS TN
100 PM CST MON FEB 20 2017

TNZ002-004-019-021-049-052-054-088>092-202000-
WEST TENNESSEE

CITY           SKY/WX    TMP DP  RH WIND       PRES   REMARKS
MEMPHIS INTL   PTSUNNY   77  57  50 SW10      30.04F
NWS MEMPHIS      N/A     78 N/A N/A MISG        N/A
JACKSON        MOSUNNY   75  53  46 S6        30.06F
UNION CITY     SUNNY     73  46  38 CALM      30.05F
PARIS          SUNNY     70  52  52 S7        30.09F
$$

TNZ008-025-027-028-033-062-065-066-202000-
NORTH MIDDLE TENNESSEE

CITY           SKY/WX    TMP DP  RH WIND       PRES   REMARKS
NASHVILLE      CLOUDY    73  44  35 SE8       30.11F
CLARKSVILLE    MOSUNNY   69  48  47 SE8       30.10F
SMYRNA         MOSUNNY   73  49  42 SE3       30.12F
CROSSVILLE     MOSUNNY   66  42  41 VRB5      30.17F
$$

TNZ061-075-076-078-094-096-097-202000-
SOUTH MIDDLE TENNESSEE

CITY           SKY/WX    TMP DP  RH WIND       PRES   REMARKS
TULLAHOMA      SUNNY     70  37  30 S7        30.14F
MCMINNVILLE    SUNNY     73  43  33 CALM      30.13F
COLUMBIA       SUNNY     72  50  46 S8        30.09F
SHELBYVILLE    SUNNY     73  48  40 SE5       30.13F
$$

TNZ017-018-042-046-047-202000-
NORTHEAST TENNESSEE

CITY           SKY/WX    TMP DP  RH WIND       PRES   REMARKS
TRI CITIES     CLOUDY    69  40  34 CALM      30.16F
$$

TNZ012-013-036-069-073-074-202000-
CENTRAL EAST TENNESSEE

CITY           SKY/WX    TMP DP  RH WIND       PRES   REMARKS
KNOXVILLE      CLOUDY    66  44  45 CALM      30.16F
OAK RIDGE      CLOUDY    67  44  43 CALM      30.17F
GATLINBURG     SUNNY     66  43  42 W6        30.15F
$$

TNZ083-085-099-202000-
SOUTHEAST TENNESSEE

CITY           SKY/WX    TMP DP  RH WIND       PRES   REMARKS
CHATTANOOGA    PTSUNNY   65  46  50 CALM      30.17F
$$

SKY/WX REPORTED AS FAIR MEANS FEW OR NO CLOUDS BELOW
12 THOUSAND FEET.





USA.gov is the U.S. government's official web portal to all federal, state and local government web resources and services.